Location: Lake Hudson State Recreational Area
(41.8372°N, 84.2445°W)
Time: 08:35:17
(UTC-04:00)

Tiangong 2 - Visible Passes

Search period start: 24 June 2018 00:00
Search period end: 04 July 2018 00:00
Orbit: 385 x 396 km, 42.8° (Epoch: 24 June)

Date Brightness Start Highest point End Pass type
(mag) Time Alt. Az. Time Alt. Az. Time Alt. Az.
27 Jun 3.2 04:33:56 14° SSE 04:34:54 16° SSE 04:36:54 10° ESE visible
28 Jun 1.8 05:11:15 12° SW 05:13:56 42° SSE 05:17:00 10° E visible
29 Jun 2.3 04:16:12 26° SSE 04:16:32 27° SSE 04:19:19 10° E visible
30 Jun 3.9 03:21:08 11° ESE 03:21:08 11° ESE 03:21:23 10° ESE visible
30 Jun 1.1 04:53:27 17° WSW 04:55:44 68° SSE 04:58:55 10° E visible
01 Jul 1.5 03:58:23 45° SSE 03:58:23 45° SSE 04:01:23 10° E visible
01 Jul 1.3 05:31:55 10° W 05:35:08 75° N 05:38:21 10° E visible
02 Jul 3.8 03:03:18 13° E 03:03:18 13° E 03:03:45 10° E visible
02 Jul 1.0 04:35:38 21° W 04:37:37 87° N 04:40:50 10° E visible
03 Jul 1.3 03:40:34 60° ESE 03:40:34 60° ESE 03:43:20 10° E visible
03 Jul 1.3 05:13:53 10° W 05:17:04 72° N 05:20:17 10° E visible
